POPACS 3

Last updated on Sat Apr 13 2024 01:03:32 GMT+0100 (British Summer Time)

1 39270U 13055F 24103.42573418 .00008267 00000+0 23190-3 0 9999 2 39270 81.0131 359.2215 0633589 299.5207 54.4224 14.35336019523525
UTC large
Height (km)
Speed (km/s)
/
Latitude / Longitude
Inclination (degrees)
Orbital Period (minutes)
Azimuth
Elevation
Range (km)
Doppler Factor

Next 0 passes for location: London (51.5072 / 0.1276)

Sorry there are no passes over London.